| time (UTC) | temp F | wind direction | speed knots | gust knots | rain 1hr in | rain 24hr in | rain mn in | humidity % | barometer mb |
| 20260505035023 | 48 | 88 | 1.7 | 7.0 | 0.02 | 0.02 | 0.02 | 92 | 1010.5 |
| 20260505034024 | 49 | 249 | 7.0 | 6.1 | 0.01 | 0.01 | 0.01 | 93 | 1010.8 |
| 20260505033024 | 49 | 259 | 6.1 | 8.7 | 0.01 | 0.01 | 0.01 | 92 | 1010.8 |
| 20260505031023 | 49 | 266 | 8.7 | 10.4 | 0.01 | 0.01 | 0.01 | 89 | 1010.5 |
| 20260505030023 | 49 | 265 | 7.0 | 7.8 | 0.00 | 0.00 | 0.00 | 86 | 1010.5 |
| 20260505025023 | 50 | 284 | 1.7 | 5.2 | 0.00 | 0.00 | 0.00 | 84 | 1010.2 |
| 20260505024024 | 52 | 281 | 4.3 | 6.1 | 0.00 | 0.00 | 0.00 | 77 | 1010.2 |
| 20260505023024 | 52 | 309 | 3.5 | 7.0 | 0.00 | 0.00 | 0.00 | 73 | 1010.2 |
| 20260505021023 | 54 | 335 | 3.5 | 5.2 | 0.00 | 0.00 | 0.00 | 67 | 1009.8 |
| 20260505020023 | 54 | 337 | 1.7 | 5.2 | 0.00 | 0.00 | 0.00 | 66 | 1009.8 |
| 20260505015024 | 54 | 327 | 3.5 | 5.2 | 0.00 | 0.00 | 0.00 | 65 | 1009.8 |
| 20260505014023 | 54 | 324 | 2.6 | 7.0 | 0.00 | 0.00 | 0.00 | 64 | 1009.8 |
| 20260505013023 | 55 | 269 | 1.7 | 9.6 | 0.00 | 0.00 | 0.00 | 63 | 1009.8 |
| 20260505012023 | 56 | 301 | 3.5 | 11.3 | 0.00 | 0.00 | 0.00 | 61 | 1009.8 |
| 20260505011023 | 57 | 319 | 6.1 | 13.0 | 0.00 | 0.00 | 0.00 | 58 | 1009.5 |
| 20260505010023 | 58 | 350 | 3.5 | 8.7 | 0.00 | 0.00 | 0.00 | 60 | 1009.5 |
| 20260505005023 | 58 | 15 | 2.6 | 7.0 | 0.00 | 0.00 | 0.00 | 62 | 1009.1 |
| 20260505004024 | 58 | 12 | 1.7 | 6.1 | 0.00 | 0.00 | 0.00 | 59 | 1009.1 |
| 20260505003023 | 58 | 11 | 3.5 | 7.8 | 0.00 | 0.00 | 0.00 | 58 | 1009.1 |
| 20260505002023 | 57 | 50 | 0.9 | 6.1 | 0.00 | 0.00 | 0.00 | 60 | 1009.1 |
| 20260505001023 | 57 | 26 | 3.5 | 5.2 | 0.00 | 0.00 | 0.00 | 59 | 1009.1 |
| 20260504234023 | 58 | 345 | 6.1 | 11.3 | 0.00 | 0.00 | 0.00 | 58 | 1008.8 |
| 20260504233023 | 59 | 355 | 7.8 | 9.6 | 0.00 | 0.00 | 0.00 | 50 | 1008.8 |
| 20260504232023 | 60 | 331 | 1.7 | 12.2 | 0.00 | 0.00 | 0.00 | 55 | 1008.8 |
| 20260504231023 | 61 | 272 | 11.3 | 13.0 | 0.00 | 0.00 | 0.00 | 50 | 1008.8 |
| 20260504225023 | 61 | 277 | 6.1 | 12.2 | 0.00 | 0.00 | 0.00 | 45 | 1008.8 |
| 20260504224023 | 62 | 304 | 6.1 | 9.6 | 0.00 | 0.00 | 0.00 | 45 | 1008.8 |
| 20260504223023 | 62 | 309 | 4.3 | 6.1 | 0.00 | 0.00 | 0.00 | 43 | 1008.5 |
| 20260504222023 | 61 | 74 | 3.5 | 7.8 | 0.00 | 0.00 | 0.00 | 44 | 1008.1 |
| 20260504221023 | 61 | 25 | 4.3 | 9.6 | 0.00 | 0.00 | 0.00 | 44 | 1007.8 |
| 20260504220023 | 61 | 6 | 7.8 | 13.9 | 0.00 | 0.00 | 0.00 | 44 | 1007.8 |
| 20260504215023 | 61 | 41 | 4.3 | 19.1 | 0.00 | 0.00 | 0.00 | 47 | 1007.8 |
| 20260504214023 | 63 | 18 | 8.7 | 18.2 | 0.00 | 0.00 | 0.00 | 45 | 1007.8 |
| 20260504213023 | 64 | 333 | 7.0 | 18.2 | 0.00 | 0.00 | 0.00 | 44 | 1008.1 |
| 20260504212123 | 62 | 356 | 11.3 | 14.8 | 0.00 | 0.00 | 0.00 | 40 | 1008.1 |
| 20260504210023 | 62 | 1 | 6.1 | 16.5 | 0.00 | 0.00 | 0.00 | 45 | 1008.5 |
| 20260504205023 | 65 | 13 | 7.8 | 13.0 | 0.00 | 0.00 | 0.00 | 41 | 1008.1 |
| 20260504203023 | 67 | 306 | 8.7 | 11.3 | 0.00 | 0.00 | 0.00 | 32 | 1007.8 |
| 20260504202023 | 68 | 167 | 3.5 | 7.8 | 0.00 | 0.00 | 0.00 | 32 | 1007.5 |
| 20260504195023 | 72 | 21 | 3.5 | 13.9 | 0.00 | 0.00 | 0.00 | 27 | 1007.5 |
| 20260504194023 | 71 | 0 | 8.7 | 13.0 | 0.00 | 0.00 | 0.00 | 27 | 1007.5 |
| 20260504193023 | 71 | 351 | 7.8 | 14.8 | 0.00 | 0.00 | 0.00 | 27 | 1007.5 |
| 20260504192023 | 70 | 310 | 6.1 | 11.3 | 0.00 | 0.00 | 0.00 | 25 | 1007.1 |
| 20260504191023 | 71 | 316 | 7.8 | 13.9 | 0.00 | 0.00 | 0.00 | 24 | 1007.1 |
| 20260504190023 | 71 | 329 | 1.7 | 10.4 | 0.00 | 0.00 | 0.00 | 24 | 1007.1 |
| 20260504185023 | 71 | 14 | 5.2 | 11.3 | 0.00 | 0.00 | 0.00 | 24 | 1007.5 |
| 20260504184023 | 70 | 351 | 7.0 | 12.2 | 0.00 | 0.00 | 0.00 | 27 | 1007.5 |
| 20260504183023 | 70 | 275 | 7.8 | 14.8 | 0.00 | 0.00 | 0.00 | 26 | 1007.5 |
| 20260504182023 | 70 | 302 | 7.8 | 13.0 | 0.00 | 0.00 | 0.00 | 27 | 1007.8 |
| 20260504180023 | 69 | 301 | 7.8 | 14.8 | 0.00 | 0.00 | 0.00 | 27 | 1007.8 |
| 20260504174023 | 68 | 277 | 7.0 | 19.1 | 0.00 | 0.00 | 0.00 | 30 | 1008.1 |
| 20260504173123 | 67 | 281 | 7.8 | 21.7 | 0.00 | 0.00 | 0.00 | 31 | 1008.1 |
| 20260504171023 | 66 | 269 | 5.2 | 10.4 | 0.00 | 0.00 | 0.00 | 32 | 1008.5 |
| 20260504160123 | 64 | 283 | 1.7 | 9.6 | 0.00 | 0.00 | 0.00 | 34 | 1008.8 |
| 20260504151023 | 60 | 227 | 3.5 | 6.1 | 0.00 | 0.00 | 0.00 | 38 | 1008.8 |
| 20260504141123 | 52 | 271 | 1.7 | 4.3 | 0.00 | 0.00 | 0.00 | 43 | 1008.8 |
| 20260504100122 | 47 | 184 | 4.3 | 6.1 | 0.00 | 0.00 | 0.00 | 48 | 1009.1 |
| 20260504090122 | 49 | 216 | 1.7 | 4.3 | 0.00 | 0.00 | 0.00 | 45 | 1009.5 |
| 20260504081022 | 52 | 272 | 4.3 | 5.2 | 0.00 | 0.00 | 0.00 | 42 | 1009.5 |
| 20260504070122 | 54 | 317 | 3.5 | 7.0 | 0.00 | 0.00 | 0.00 | 42 | 1010.2 |
| 20260504045022 | 60 | 311 | 7.0 | 8.7 | 0.00 | 0.00 | 0.00 | 33 | 1010.2 |
| 20260504042122 | 62 | 302 | 0.9 | 7.8 | 0.00 | 0.00 | 0.00 | 33 | 1009.8 |
| 20260504041022 | 62 | 282 | 4.3 | 7.0 | 0.00 | 0.00 | 0.00 | 33 | 1010.2 |
| 20260504040022 | 63 | 276 | 4.3 | 6.1 | 0.00 | 0.00 | 0.00 | 32 | 1010.2 |